Weather in Kobyletska Glade

Ukraine / Zakarpattia District     48°03′06″N   24°03′36″E
temp.,
°C
wind,
m/s
gust,
m/s
humid.,
%
clouds,
%
prec.,
mm/h
press.,
hPa
HPBL,
m
11 may, tue
tue1100:00+10e11860 0.0 101913
03:00+9e11860 0.0 101912
06:00+8e11840 0.0 101912
09:00+15se11660 0.0 1017219
12:00+21ssw12510 0.0 1016741
15:00+23wsw11440 0.0 10141166
18:00+22w11533 0.0 1013959
21:00+15nne11820 0.0 101212
12 may, wed
wed1200:00+12e228316 0.0 101320
03:00+12e117299 0.0 101223
06:00+12e217344 0.0 101125
09:00+16e12621 0.0 1009332
12:00+21s12470 0.0 10071312
15:00+22sw324787 0.0 10051427
18:00+17ese227374 0.2 100549
21:00+14ene2286100 1.6 100530
13 may, thu
thu1300:00+11ene229340 0.2 100537
03:00+11e2191100 0.2 100537
06:00+11ese1190100 0.1 100414
09:00+11se1398100 3.3 1004218
12:00+11sse1293100 4.3 1005198
15:00+11se1395100 7.7 1005257
18:00+11se2595100 1.6 1005374
21:00+10ese2295100 2.4 100556
14 may, fri
fri1400:00+10se2295100 0.2 100668
03:00+10sse1193100 0.3 100626
06:00+9s1296100 0.6 100773
09:00+10s2397100 1.6 1008215
12:00+10wsw2394100 2.3 1009289
15:00+12wsw148199 2.9 1010932
18:00+12w248058 0.8 1010959
21:00+8sse008941 1.1 101111
15 may, sat
sat1500:00+9sse229293 0.0 101245
03:00+7ese1194100 0.1 101319
06:00+7ese119395 0.0 101315
09:00+10ese1190100 0.0 101395
12:00+15ssw126729 0.1 1013790
15:00+16w22709 2.1 10111021
18:00+16nnw11766 2.6 1010436
21:00+11ne11895 3.0 101015